Rock Hill, SC

6:25 PM EST on January 23, 2017 (GMT -0500)
Rock Hill-York County-Bryant

Weather History for KUZA - March, 2014

Change the Weather History Date:

Saturday, March 22, 2014

  Actual Average Record
Temperature  
Mean Temperature 57 °F -  
Max Temperature 75 °F 64 °F 85 °F (1968)
Min Temperature 39 °F 42 °F 25 °F (1960)
Degree Days  
Heating Degree Days 8    
Growing Degree Days 7 (Base 50)    
Moisture  
Dew Point 38 °F    
Average Humidity 52    
Maximum Humidity 83    
Minimum Humidity 28    
Precipitation  
Precipitation 0.00 in - - ()
Sea Level Pressure  
Sea Level Pressure 30.01 in    
Wind  
Wind Speed 7 mph (SW)    
Max Wind Speed 13 mph    
Max Gust Speed 20 mph    
Visibility 9 miles    
Events      
Averages and records for this station are not official NWS values.
T = Trace of Precipitation, MM = Missing Value Source: NWS Daily Summary

Daily Weather History Graph

Daily Weather History Graph

Search for Another Location

Airport or City:

Trip Planner

Search our weather history database for the weather conditions in past years. The results will help you decide how hot, cold, wet, or windy it might be!

Date:

Astronomy

Mar. 22, 2014 Rise Set
Actual Time 7:25 AM EDT 7:37 PM EDT
Civil Twilight 6:59 AM EDT 8:02 PM EDT
Nautical Twilight 6:30 AM EDT 8:32 PM EDT
Astronomical Twilight 6:00 AM EDT 9:02 PM EDT
Moon 12:44 AM EDT (3/22) 11:18 AM EDT (3/22)
Length of Visible Light 13h 03m
Length of Day
12h 12m
Waning Gibbous, 65% of the Moon is Illuminated
Mar 22
Waning Gibbous
Mar 23
Last Quarter
Mar 30
New
Apr 7
First Quarter
Apr 15
Full

Hourly Weather History & Observations

Time (EDT) Temp. Windchill Dew Point Humidity Pressure Visibility Wind Dir Wind Speed Gust Speed Precip Events Conditions
12:54 AM 46.9 °F - 33.1 °F 59% 30.06 in 10.0 mi South 5.8 mph - N/A   Clear
1:54 AM 50.0 °F - 32.0 °F 50% 30.04 in 10.0 mi SSW 8.1 mph - N/A   Clear
2:54 AM 48.0 °F - 32.0 °F 54% 30.03 in 10.0 mi SSW 6.9 mph - N/A   Clear
3:54 AM 45.0 °F 42.6 °F 34.0 °F 65% 30.02 in 10.0 mi SW 4.6 mph - N/A   Clear
4:54 AM 43.0 °F 39.5 °F 34.0 °F 71% 30.02 in 10.0 mi SW 5.8 mph - N/A   Clear
5:54 AM 43.0 °F 39.5 °F 35.1 °F 74% 30.03 in 10.0 mi SW 5.8 mph - N/A   Clear
6:54 AM 41.0 °F - 35.1 °F 79% 30.04 in 10.0 mi Calm Calm - N/A   Clear
7:54 AM 39.9 °F 35.1 °F 35.1 °F 83% 30.06 in 8.0 mi SSW 6.9 mph - N/A   Clear
8:54 AM 50.0 °F - 39.0 °F 66% 30.05 in 9.0 mi SW 8.1 mph - N/A   Clear
9:54 AM 59.0 °F - 39.9 °F 49% 30.06 in 10.0 mi SW 10.4 mph - N/A   Clear
10:54 AM 64.9 °F - 42.1 °F 43% 30.05 in 10.0 mi SW 11.5 mph - N/A   Clear
11:54 AM 68.0 °F - 41.0 °F 37% 30.04 in 10.0 mi WSW 12.7 mph 19.6 mph N/A   Clear
12:54 PM 70.0 °F - 41.0 °F 35% 30.02 in 10.0 mi West 10.4 mph - N/A   Clear
1:54 PM 73.0 °F - 42.1 °F 33% 29.99 in 10.0 mi WSW 6.9 mph - N/A   Clear
2:54 PM 73.0 °F - 39.9 °F 30% 29.96 in 9.0 mi SW 8.1 mph - N/A   Clear
3:54 PM 75.0 °F - 39.9 °F 28% 29.96 in 8.0 mi SW 8.1 mph - N/A   Clear
4:54 PM 73.0 °F - 37.9 °F 28% 29.96 in 9.0 mi WSW 10.4 mph - N/A   Clear
5:54 PM 73.0 °F - 37.9 °F 28% 29.95 in 9.0 mi West 9.2 mph - N/A   Clear
6:54 PM 71.1 °F - 39.9 °F 32% 29.96 in 6.0 mi SSW 8.1 mph - N/A   Haze
7:54 PM 62.1 °F - 41.0 °F 46% 29.98 in 8.0 mi SSW 5.8 mph - N/A   Clear
8:54 PM 61.0 °F - 42.1 °F 50% 29.99 in 9.0 mi SSW 3.5 mph - N/A   Clear
9:54 PM 57.0 °F - 42.1 °F 57% 29.99 in 9.0 mi SSW 4.6 mph - N/A   Clear
10:54 PM 54.0 °F - 43.0 °F 66% 29.99 in 9.0 mi SW 4.6 mph - N/A   Clear
11:54 PM 51.1 °F - 43.0 °F 74% 29.98 in 9.0 mi SSW 5.8 mph - N/A   Clear